Flag for Norway Weather past 2 weeks in Melhus, Norway

Now
55 °F

Broken clouds.


Feels Like: 53 °F
Forecast: 40 / 50 °F
Wind: 10 mph from Southwest

Location: Trondheim / Vaernes

Current Time: Oct 24, 2014 at 5:13:58 PM

Latest Report: Oct 24, 2014 at 4:20 PM


Visibility: N/A

Pressure: 29.62 "Hg

Humidity: 67%

Dew point: 45 °F

Location of MelhusLocation

Historic Weather in Melhus — Graph

°F

Melhus temperature yesterday

Maximum temperature yesterday: 50 °F (at 9:50 PM)
Minimum temperature yesterday: 41 °F (at 10:20 AM)
Average temperature yesterday: 46 °F

Past Weeks' High & Low Weather Summary

 TemperatureHumidityPressure
High57 °F (Oct 24, 3:20 PM)100% (Oct 11, 7:20 AM)30.07 "Hg (Oct 11, 7:20 AM)
Low28 °F (Oct 18, 4:50 AM)46% (Oct 17, 3:20 PM)29.27 "Hg (Oct 19, 11:20 PM)
Average44 °F77%29.76 "Hg
* Reported Oct 9 3:20 PM — Oct 24 3:50 PM, Melhus, Weather by CustomWeather, © 2014

Note: Actual official high and low records may vary slightly from our data, if they occured in-between our weather recording intervals... More about our weather records

Advertising

Melhus weather history for previous 24 hours

 ConditionsComfort  
Time TempWeatherWind HumidityBarometerVisibility
3:50 PM
Oct 24
57 °FSunny.7 mph63%29.62 "Hg10 mi
3:20 PM57 °FPassing clouds.6 mph63%29.62 "HgN/A
2:50 PM55 °FClear.5 mph63%29.62 "HgN/A
2:20 PM55 °FPassing clouds.3 mph63%29.62 "HgN/A
1:50 PM55 °FSunny.5 mph63%29.62 "Hg10 mi
1:20 PM55 °FPassing clouds.9 mph63%29.62 "HgN/A
12:50 PM55 °FPassing clouds.3 mph63%29.62 "HgN/A
12:20 PM55 °FSunny.3 mph63%29.62 "Hg10 mi
11:50 AM55 °FSunny.18 mph63%29.62 "Hg10 mi
11:20 AM55 °FPassing clouds.17 mph63%29.59 "HgN/A
10:50 AM55 °FPassing clouds.13 mph63%29.59 "HgN/A
10:20 AM54 °FSunny.2 mph67%29.59 "Hg10 mi
9:50 AM54 °FSunny.3 mph63%29.59 "Hg10 mi
9:20 AM54 °FClear.21 mph63%29.59 "Hg10 mi
8:50 AM52 °FPassing clouds.18 mph67%29.59 "HgN/A
8:20 AM54 °FClear.16 mph63%29.56 "Hg10 mi
7:50 AM50 °FPassing clouds.21 mph76%29.56 "HgN/A
7:20 AM50 °FPartly cloudy.16 mph71%29.59 "HgN/A
6:50 AM50 °FPartly cloudy.9 mph71%29.59 "HgN/A
6:20 AM48 °FPartly cloudy.12 mph82%29.59 "HgN/A
5:50 AM48 °FLight rain. Passing clouds.9 mph76%29.62 "HgN/A
4:50 AM48 °FLight rain. Passing clouds.15 mph76%29.62 "HgN/A
3:50 AM48 °FPassing clouds.23 mph71%29.62 "HgN/A
2:20 AM48 °FPartly cloudy.20 mph76%29.68 "HgN/A
1:50 AM50 °FPartly cloudy.17 mph67%29.68 "HgN/A
1:20 AM50 °FPassing clouds.10 mph67%29.68 "HgN/A
12:50 AM50 °FPassing clouds.12 mph67%29.71 "HgN/A
12:20 AM50 °FPassing clouds.7 mph67%29.71 "HgN/A
11:50 PM
Oct 23
50 °FPassing clouds.7 mph62%29.71 "HgN/A
11:20 PM50 °FPassing clouds.3 mph62%29.71 "HgN/A
10:50 PM50 °FClear.2 mph62%29.74 "Hg10 mi
10:20 PM50 °FPassing clouds.8 mph58%29.71 "HgN/A
9:50 PM50 °FPassing clouds.6 mph58%29.74 "HgN/A
9:20 PM48 °FClear.5 mph62%29.74 "Hg10 mi
8:50 PM48 °FPassing clouds.7 mph62%29.74 "HgN/A
8:20 PM48 °FPassing clouds.6 mph62%29.74 "HgN/A
7:50 PM48 °FClear.5 mph58%29.74 "Hg10 mi
7:20 PM48 °FPassing clouds.5 mph58%29.77 "HgN/A
6:50 PM48 °FClear.3 mph58%29.77 "Hg10 mi
6:20 PM48 °FPassing clouds.7 mph58%29.74 "HgN/A
5:50 PM48 °FPassing clouds.9 mph54%29.77 "HgN/A
5:20 PM48 °FPassing clouds.8 mph58%29.77 "HgN/A
Weather by CustomWeather, © 2014

See weather overviewHow to use our weather pages